Regional Weather Roundup
Issued by NWS

Home | Current Version | Previous Version | Text Only | Print | Product List | Glossary Off
Versions: 1 2 3 4 5 6 7 8 9 10 11 12 13 14 15 16 17 18 19 20 21 22 23 24 25 26 27 28 29 30 31 32 33 34 35 36 37 38 39 40 41 42 43 44 45 46 47 48 49 50

000
ASUS43 KBIS 121110
RWRND

NORTH DAKOTA REGIONAL WEATHER ROUNDUP
NATIONAL WEATHER SERVICE BISMARCK ND
600 AM CDT SAT JUL 12 2014

NOTE: "FAIR" INDICATES FEW OR NO CLOUDS BELOW 12,000 FEET WITH NO
SIGNIFICANT WEATHER AND/OR OBSTRUCTIONS TO VISIBILITY.


NDZ001>003-009>011-017-121200-
NORTHWEST NORTH DAKOTA

CITY           SKY/WX    TMP DP  RH WIND       PRES   REMARKS
WILLISTON      CLEAR     52  49  89 CALM      30.12R
MINOT          PTCLDY    55  52  89 SW7       30.08R
MINOT AFB      CLEAR     54  54  99 W6        30.07R
$$

NDZ018>021-031>035-040>046-121200-
SOUTHWEST NORTH DAKOTA

CITY           SKY/WX    TMP DP  RH WIND       PRES   REMARKS
BISMARCK       CLOUDY    64  56  75 N3        30.10R
DICKINSON      LGT RAIN  60  57  89 E3        30.13R
GARRISON         N/A     56  54  93 NW5       30.09S
HETTINGER ARPT TSTM      61  58  90 NW14      30.19R FOG
$$

NDZ004>008-012>016-024-026-027-054-121200-
NORTHEAST NORTH DAKOTA

CITY           SKY/WX    TMP DP  RH WIND       PRES   REMARKS
GRAND FORKS    MOCLDY    55  52  89 W5        30.02S
GRND FRKS AFB  PTCLDY    55  55  99 NW6       30.03S
DEVILS LAKE    PTCLDY    57  52  82 CALM      30.04S
$$

NDZ022-023-025-028>030-036>039-047>053-121200-
SOUTHEAST NORTH DAKOTA

CITY           SKY/WX    TMP DP  RH WIND       PRES   REMARKS
FARGO          CLEAR     59  56  89 CALM      30.02F
JAMESTOWN      MOCLDY    59  56  89 CALM      30.06R
$$



USA.gov is the U.S. government's official web portal to all federal, state and local government web resources and services.